Regional Weather Roundup
Issued by NWS

Home | Current Version | Previous Version | Text Only | Print | Product List | Glossary Off
Versions: 1 2 3 4 5 6 7 8 9 10 11 12 13 14 15 16 17 18 19 20 21 22 23 24 25 26 27 28 29 30 31 32 33 34 35 36 37 38 39 40 41 42 43 44 45 46 47 48 49 50

000
ASUS43 KBIS 281610
RWRND

NORTH DAKOTA REGIONAL WEATHER ROUNDUP
NATIONAL WEATHER SERVICE BISMARCK ND
1100 AM CDT TUE JUL 28 2015

NOTE: "FAIR" INDICATES FEW OR NO CLOUDS BELOW 12,000 FEET WITH NO
SIGNIFICANT WEATHER AND/OR OBSTRUCTIONS TO VISIBILITY.


NDZ001>003-009>011-017-281700-
NORTHWEST NORTH DAKOTA

CITY           SKY/WX    TMP DP  RH WIND       PRES   REMARKS
WILLISTON      LGT RAIN  60  56  86 W26G39    29.53R
MINOT          CLOUDY    66  50  56 S20G32    29.54F
MINOT AFB      PTSUNNY   68  54  62 SW21G32   29.52F
$$

NDZ018>021-031>035-040>046-281700-
SOUTHWEST NORTH DAKOTA

CITY           SKY/WX    TMP DP  RH WIND       PRES   REMARKS
BISMARCK       PTSUNNY   68  49  50 W24G38    29.74S
DICKINSON      CLOUDY    63  49  60 W33G52    29.71S
GARRISON         N/A     64  51  62 SW26G35   29.61F
HETTINGER ARPT CLOUDY    63  45  51 W30G43    29.84R
$$

NDZ004>008-012>016-024-026-027-054-281700-
NORTHEAST NORTH DAKOTA

CITY           SKY/WX    TMP DP  RH WIND       PRES   REMARKS
GRAND FORKS    MOSUNNY   75  63  66 W18G25    29.60R
GRND FRKS AFB  MOSUNNY   74  62  65 W15G23    29.62R
DEVILS LAKE    PTSUNNY   70  55  60 SW22G30   29.60S
$$

NDZ022-023-025-028>030-036>039-047>053-281700-
SOUTHEAST NORTH DAKOTA

CITY           SKY/WX    TMP DP  RH WIND       PRES   REMARKS
FARGO          PTSUNNY   76  65  68 SW20G28   29.68R
JAMESTOWN      SUNNY     70  54  56 W24G30    29.70F
$$




USA.gov is the U.S. government's official web portal to all federal, state and local government web resources and services.